This demonstration page uses our WeatherBlox Daily Observations layout. Learn more.

Left ArrowRight Arrow

31.84235, -102.49876

Hourly Observations for March 13, 2015

Temp ( °F °C ) Dew Point ( °F °C ) Humidity (%) Winds ( mph kmh ) Pressure ( in mb ) Visibility ( mi km ) Precip ( " mm )
12:53 am 00:53 Clear 54 12.2 32 0 43 43 SE 6 9 30.02 1017 10 16 0.00 0.00
1:53 am 01:53 Clear 46 7.8 34 1.1 63 63 Calm 30.03 1017 10 16 0.00 0.00
2:53 am 02:53 Clear 45 7.2 34 1.1 66 66 Calm 30.03 1017 10 16 0.00 0.00
3:53 am 03:53 Clear 42 5.6 34 1.1 73 73 SW 3 6 30.01 1016 10 16 0.00 0.00
4:53 am 04:53 Clear 44 6.7 34 1.1 68 68 NW 5 7 30.00 1016 10 16 0.00 0.00
5:53 am 05:53 Clear 40 4.4 33 0.6 77 77 N 7 11 30.01 1016 10 16 0.00 0.00
6:53 am 06:53 Clear 40 4.4 33 0.6 77 77 N 9 15 30.03 1017 10 16 0.00 0.00
7:53 am 07:53 Clear 41 5 33 0.6 73 73 N 9 15 30.04 1017 10 16 0.00 0.00
8:53 am 08:53 Sunny 44 6.7 35 1.7 71 71 N 10 17 30.06 1018 10 16 0.00 0.00
9:53 am 09:53 Sunny 52 11.1 38 3.3 59 59 N 8 13 30.07 1018 10 16 0.00 0.00
10:53 am 10:53 Sunny 61 16.1 39 3.9 44 44 N 8 13 30.07 1018 10 16 0.00 0.00
11:53 am 11:53 Partly Cloudy 64 17.8 36 2.2 35 35 N 6 9 30.06 1018 10 16 0.00 0.00
12:53 pm 12:53 Mostly Sunny 67 19.4 33 0.6 28 28 NNE 8 13 30.05 1018 10 16 0.00 0.00
1:53 pm 13:53 Sunny 69 20.6 33 0.6 26 26 NNE 12 19 30.04 1017 10 16 0.00 0.00
2:53 pm 14:53 Mostly Cloudy 70 21.1 33 0.6 26 26 N 10 17 30.01 1016 10 16 0.00 0.00
3:53 pm 15:53 Sunny 72 22.2 30 -1.1 21 21 NNE 9 15 29.99 1016 10 16 0.00 0.00
4:53 pm 16:53 Mostly Sunny 72 22.2 30 -1.1 21 21 NNE 12 19 29.98 1015 10 16 0.00 0.00
5:53 pm 17:53 Mostly Cloudy 68 20 32 0 26 26 ENE 17 28 29.99 1016 10 16 0.00 0.00
6:03 pm 18:03 Partly Cloudy 67 19.4 34 1.1 30 30 E 13 20 29.97 1015 10 16 0.00 0.00
6:53 pm 18:53 Partly Cloudy 68 20 32 0 26 26 ENE 10 17 29.99 1016 10 16 0.00 0.00
7:53 pm 19:53 Mostly Sunny 63 17.2 36 2.2 37 37 E 5 7 30.01 1016 10 16 0.00 0.00
8:53 pm 20:53 Clear 57 13.9 37 2.8 47 47 NNW 6 9 30.03 1017 10 16 0.00 0.00
9:53 pm 21:53 Partly Cloudy 57 13.9 34 1.1 42 42 NNE 6 9 30.04 1017 10 16 0.00 0.00
10:53 pm 22:53 Mostly Clear 56 13.3 34 1.1 44 44 NE 6 9 30.05 1018 10 16 0.00 0.00
11:53 pm 23:53 Mostly Clear 52 11.1 35 1.7 53 53 NNE 7 11 30.07 1018 10 16 0.00 0.00

Powered by AerisWeather